STARLINK-2276 (48601 NORAD) Tracking and Keplerian Element Data

This shows tracking and keplerian element data for the satellite.

Feedback or suggestion? Click here.




ElementValue
Catalog48601
NameSTARLINK-2276
Epoch Orbit369
Epoch Day214.91667824
Epoch Year2021
RAAN101.5506
Inclination53.0513
Eccentricity0.0001221
Argument of Perigee96.6105
Mean Anonmoly205.4414
Mean Motion15.87528457
Decay Rate0.00792603
L11 48601U 21041BA 21214.91667824 .00792603 00000-0 26722-2 0 9998
L22 48601 53.0513 101.5506 0001221 96.6105 205.4414 15.87528457 3699

Live tracking and technical data element details for STARLINK-2276 (NORAD 48601). STARLINK-2276 can be tracked NOW for your location showing map with azimuth and elevation plus other details from your city location.

Track the satellite on the map from your city or location and see movement details for azimuth, elevation, latitude, longitude, range, height, and movement on the map or in text.







IsCatalogInMostPopularTable: catalog: 48601, numindb: 19
Update: records affected: 1



GetName: 48601 STARLINK-2276

Hit Count: updated at: Tue, 03 Aug 2021 23:21:53 GMT